Voltar ao catálogo

DELTA 1 DEB

AtivoLEO
NORAD 42648·DEBRIS·🇺🇸 United States

Lançado Jun 12, 1975 de Vandenberg Space Force Base

Loading…

Próximas Passagens (próximas 24 horas)

TLE

EnvelhecendoSource: Space-Track

Época: Sep 11, 2026, 14:19 UTC

1 42648U 75052MH  26254.59655155  .00005652  00000-0  70968-2 0  9993
2 42648 100.3403   7.7612 0199152 258.7328  99.1369 13.56595921624131

Acompanhe DELTA 1 DEB em tempo real com AllMySat

Download on the App Store